contact:dominique.lefevre@mio.osupytheas.fr, maurice.libes@osupytheas.fr, didier.mallarino@osupytheas.fr
Project:EMSO http://www.emso-fr.org/EMSO-France
Depth: 2436.0 m
Title:EMSO Ligure Ouest : Data MII capteur OXYGEN
DateTime,Latitude,Longitude,Optode-Type,Optode_Serial,Oxygen,Saturation_Oxygen,Temperature
DateTime,Latitude,Longitude,Optode-Type,Optode_Serial,µmol.l-1,%,degC
2017-10-11T00:01:56,42.805,6.029,4330,1995,198.357,60.658,13.286
2017-10-11T00:04:56,42.805,6.029,4330,1995,198.371,60.662,13.286
2017-10-11T00:07:56,42.805,6.029,4330,1995,198.316,60.645,13.286
2017-10-11T00:10:56,42.805,6.029,4330,1995,198.306,60.642,13.286
2017-10-11T00:13:56,42.805,6.029,4330,1995,198.261,60.628,13.286
2017-10-11T00:16:56,42.805,6.029,4330,1995,198.116,60.585,13.287
2017-10-11T00:19:56,42.805,6.029,4330,1995,198.117,60.584,13.286
2017-10-11T00:22:56,42.805,6.029,4330,1995,198.218,60.615,13.286
2017-10-11T00:25:56,42.805,6.029,4330,1995,198.277,60.633,13.286
2017-10-11T00:28:56,42.805,6.029,4330,1995,198.371,60.662,13.286
2017-10-11T00:31:56,42.805,6.029,4330,1995,198.371,60.661,13.286
2017-10-11T00:34:56,42.805,6.029,4330,1995,198.258,60.627,13.286
2017-10-11T00:37:56,42.805,6.029,4330,1995,198.277,60.633,13.286
2017-10-11T00:40:56,42.805,6.029,4330,1995,198.317,60.645,13.286
2017-10-11T00:43:56,42.805,6.029,4330,1995,198.357,60.657,13.286
2017-10-11T00:46:56,42.805,6.029,4330,1995,198.419,60.676,13.286
2017-10-11T00:49:56,42.805,6.029,4330,1995,198.430,60.680,13.286
2017-10-11T00:52:56,42.805,6.029,4330,1995,198.475,60.693,13.286
2017-10-11T00:55:56,42.805,6.029,4330,1995,198.579,60.725,13.286
2017-10-11T00:58:56,42.805,6.029,4330,1995,198.588,60.728,13.286
2017-10-11T01:01:56,42.805,6.029,4330,1995,198.627,60.740,13.286
2017-10-11T01:04:56,42.805,6.029,4330,1995,198.526,60.709,13.286
2017-10-11T01:07:56,42.805,6.029,4330,1995,198.555,60.718,13.286
2017-10-11T01:10:56,42.805,6.029,4330,1995,198.547,60.715,13.285
2017-10-11T01:13:56,42.805,6.029,4330,1995,198.571,60.722,13.286
2017-10-11T01:16:56,42.805,6.029,4330,1995,198.586,60.727,13.286
2017-10-11T01:19:56,42.805,6.029,4330,1995,198.592,60.729,13.285
2017-10-11T01:22:56,42.805,6.029,4330,1995,198.706,60.764,13.286
2017-10-11T01:25:56,42.805,6.029,4330,1995,198.679,60.755,13.285
2017-10-11T01:28:56,42.805,6.029,4330,1995,198.675,60.755,13.286
2017-10-11T01:31:56,42.805,6.029,4330,1995,198.689,60.759,13.285
2017-10-11T01:34:56,42.805,6.029,4330,1995,198.770,60.784,13.286
2017-10-11T01:37:56,42.805,6.029,4330,1995,198.760,60.780,13.285
2017-10-11T01:40:56,42.805,6.029,4330,1995,198.826,60.800,13.286
2017-10-11T01:43:56,42.805,6.029,4330,1995,198.796,60.791,13.286
2017-10-11T01:46:56,42.805,6.029,4330,1995,198.837,60.804,13.285
2017-10-11T01:49:56,42.805,6.029,4330,1995,198.869,60.813,13.285
2017-10-11T01:52:56,42.805,6.029,4330,1995,198.839,60.805,13.286
2017-10-11T01:55:56,42.805,6.029,4330,1995,198.845,60.806,13.286
2017-10-11T01:58:56,42.805,6.029,4330,1995,198.882,60.818,13.286
2017-10-11T02:01:56,42.805,6.029,4330,1995,198.905,60.825,13.285
2017-10-11T02:04:56,42.805,6.029,4330,1995,198.917,60.829,13.286
2017-10-11T02:07:56,42.805,6.029,4330,1995,198.977,60.847,13.286
2017-10-11T02:10:56,42.805,6.029,4330,1995,198.915,60.828,13.286
2017-10-11T02:13:56,42.805,6.029,4330,1995,199.022,60.861,13.286
2017-10-11T02:16:56,42.805,6.029,4330,1995,198.964,60.843,13.286
2017-10-11T02:19:56,42.805,6.029,4330,1995,199.007,60.856,13.286
2017-10-11T02:22:56,42.805,6.029,4330,1995,199.022,60.861,13.286
2017-10-11T02:25:56,42.805,6.029,4330,1995,198.919,60.829,13.286
2017-10-11T02:28:56,42.805,6.029,4330,1995,198.936,60.834,13.286
2017-10-11T02:31:56,42.805,6.029,4330,1995,198.928,60.832,13.286
2017-10-11T02:34:56,42.805,6.029,4330,1995,198.992,60.851,13.286
2017-10-11T02:37:56,42.805,6.029,4330,1995,199.091,60.882,13.286
2017-10-11T02:40:56,42.805,6.029,4330,1995,199.069,60.874,13.285
2017-10-11T02:43:56,42.805,6.029,4330,1995,199.092,60.882,13.286
2017-10-11T02:46:56,42.805,6.029,4330,1995,199.008,60.856,13.286
2017-10-11T02:49:56,42.805,6.029,4330,1995,199.016,60.859,13.286
2017-10-11T02:52:56,42.805,6.029,4330,1995,199.020,60.860,13.286
2017-10-11T02:55:56,42.805,6.029,4330,1995,199.000,60.854,13.286
2017-10-11T02:58:56,42.805,6.029,4330,1995,199.055,60.871,13.286
2017-10-11T03:01:56,42.805,6.029,4330,1995,199.051,60.870,13.286
2017-10-11T03:04:56,42.805,6.029,4330,1995,199.079,60.878,13.286
2017-10-11T03:07:56,42.805,6.029,4330,1995,198.952,60.839,13.286
2017-10-11T03:10:56,42.805,6.029,4330,1995,198.977,60.847,13.286
2017-10-11T03:13:56,42.805,6.029,4330,1995,199.023,60.862,13.286
2017-10-11T03:16:56,42.805,6.029,4330,1995,198.969,60.845,13.286
2017-10-11T03:19:56,42.805,6.029,4330,1995,198.887,60.819,13.286
2017-10-11T03:22:56,42.805,6.029,4330,1995,198.942,60.836,13.286
2017-10-11T03:25:56,42.805,6.029,4330,1995,199.027,60.862,13.286
2017-10-11T03:28:56,42.805,6.029,4330,1995,199.132,60.894,13.286
2017-10-11T03:31:56,42.805,6.029,4330,1995,199.119,60.890,13.286
2017-10-11T03:34:56,42.805,6.029,4330,1995,199.205,60.916,13.286
2017-10-11T03:37:56,42.805,6.029,4330,1995,199.296,60.944,13.285
2017-10-11T03:40:56,42.805,6.029,4330,1995,199.379,60.969,13.286
2017-10-11T03:43:56,42.805,6.029,4330,1995,199.324,60.953,13.286
2017-10-11T03:46:56,42.805,6.029,4330,1995,199.397,60.975,13.286
2017-10-11T03:49:56,42.805,6.029,4330,1995,199.332,60.955,13.285
2017-10-11T03:52:56,42.805,6.029,4330,1995,199.526,61.014,13.285
2017-10-11T03:55:56,42.805,6.029,4330,1995,199.636,61.048,13.285
2017-10-11T03:58:56,42.805,6.029,4330,1995,199.743,61.080,13.285
2017-10-11T04:01:56,42.805,6.029,4330,1995,199.774,61.090,13.285
2017-10-11T04:04:56,42.805,6.029,4330,1995,199.822,61.105,13.285
2017-10-11T04:07:56,42.805,6.029,4330,1995,199.823,61.105,13.285
2017-10-11T04:10:56,42.805,6.029,4330,1995,199.911,61.132,13.285
2017-10-11T04:13:56,42.805,6.029,4330,1995,200.007,61.161,13.285
2017-10-11T04:16:56,42.805,6.029,4330,1995,200.060,61.177,13.285
2017-10-11T04:19:56,42.805,6.029,4330,1995,200.125,61.197,13.285
2017-10-11T04:22:56,42.805,6.029,4330,1995,200.180,61.214,13.285
2017-10-11T04:25:56,42.805,6.029,4330,1995,200.128,61.198,13.285
2017-10-11T04:28:56,42.805,6.029,4330,1995,200.164,61.209,13.285
2017-10-11T04:31:56,42.805,6.029,4330,1995,200.190,61.217,13.285
2017-10-11T04:34:56,42.805,6.029,4330,1995,200.167,61.210,13.285
2017-10-11T04:37:56,42.805,6.029,4330,1995,200.202,61.220,13.285
2017-10-11T04:40:56,42.805,6.029,4330,1995,200.191,61.217,13.285
2017-10-11T04:43:56,42.805,6.029,4330,1995,200.206,61.222,13.285
2017-10-11T04:46:56,42.805,6.029,4330,1995,200.170,61.211,13.285
2017-10-11T04:49:56,42.805,6.029,4330,1995,200.170,61.211,13.285
2017-10-11T04:52:56,42.805,6.029,4330,1995,200.090,61.187,13.285
2017-10-11T04:55:56,42.805,6.029,4330,1995,200.139,61.201,13.285
2017-10-11T04:58:56,42.805,6.029,4330,1995,200.159,61.207,13.285
2017-10-11T05:01:56,42.805,6.029,4330,1995,200.182,61.214,13.285
2017-10-11T05:04:56,42.805,6.029,4330,1995,200.164,61.209,13.285
2017-10-11T05:07:56,42.805,6.029,4330,1995,200.177,61.213,13.285
2017-10-11T05:10:56,42.805,6.029,4330,1995,200.190,61.217,13.285
2017-10-11T05:13:56,42.805,6.029,4330,1995,200.267,61.240,13.285
2017-10-11T05:16:56,42.805,6.029,4330,1995,200.238,61.231,13.285
2017-10-11T05:19:56,42.805,6.029,4330,1995,200.251,61.235,13.285
2017-10-11T05:22:56,42.805,6.029,4330,1995,200.230,61.229,13.285
2017-10-11T05:25:56,42.805,6.029,4330,1995,200.192,61.217,13.285
2017-10-11T05:28:56,42.805,6.029,4330,1995,200.179,61.213,13.285
2017-10-11T05:31:56,42.805,6.029,4330,1995,200.113,61.193,13.285
2017-10-11T05:34:56,42.805,6.029,4330,1995,200.140,61.201,13.285
2017-10-11T05:37:56,42.805,6.029,4330,1995,200.113,61.193,13.285
2017-10-11T05:40:56,42.805,6.029,4330,1995,200.041,61.171,13.285
2017-10-11T05:43:56,42.805,6.029,4330,1995,200.052,61.175,13.285
2017-10-11T05:46:56,42.805,6.029,4330,1995,199.945,61.142,13.285
2017-10-11T05:49:56,42.805,6.029,4330,1995,200.024,61.166,13.285
2017-10-11T05:52:56,42.805,6.029,4330,1995,200.018,61.164,13.285
2017-10-11T05:55:56,42.805,6.029,4330,1995,200.002,61.159,13.285
2017-10-11T05:58:56,42.805,6.029,4330,1995,200.002,61.159,13.285
2017-10-11T06:01:56,42.805,6.029,4330,1995,199.986,61.154,13.285
2017-10-11T06:04:56,42.805,6.029,4330,1995,199.955,61.145,13.285
2017-10-11T06:07:56,42.805,6.029,4330,1995,199.882,61.123,13.285
2017-10-11T06:10:56,42.805,6.029,4330,1995,199.790,61.095,13.285
2017-10-11T06:13:56,42.805,6.029,4330,1995,199.775,61.090,13.285
2017-10-11T06:16:56,42.805,6.029,4330,1995,199.741,61.079,13.285
2017-10-11T06:19:56,42.805,6.029,4330,1995,199.737,61.078,13.285
2017-10-11T06:22:56,42.805,6.029,4330,1995,199.739,61.079,13.285
2017-10-11T06:25:56,42.805,6.029,4330,1995,199.715,61.071,13.285
2017-10-11T06:28:56,42.805,6.029,4330,1995,199.644,61.050,13.285
2017-10-11T06:31:56,42.805,6.029,4330,1995,199.631,61.046,13.285
2017-10-11T06:34:56,42.805,6.029,4330,1995,199.530,61.015,13.285
2017-10-11T06:37:56,42.805,6.029,4330,1995,199.377,60.968,13.285
2017-10-11T06:40:56,42.805,6.029,4330,1995,199.452,60.991,13.285
2017-10-11T06:43:56,42.805,6.029,4330,1995,199.436,60.986,13.285
2017-10-11T06:46:56,42.805,6.029,4330,1995,199.386,60.971,13.285
2017-10-11T06:49:56,42.805,6.029,4330,1995,199.275,60.937,13.285
2017-10-11T06:52:56,42.805,6.029,4330,1995,199.351,60.960,13.285
2017-10-11T06:55:56,42.805,6.029,4330,1995,199.235,60.925,13.285
2017-10-11T06:58:56,42.805,6.029,4330,1995,199.164,60.903,13.285
2017-10-11T07:01:56,42.805,6.029,4330,1995,199.213,60.918,13.285
2017-10-11T07:04:56,42.805,6.029,4330,1995,199.329,60.953,13.285
2017-10-11T07:07:56,42.805,6.029,4330,1995,199.423,60.982,13.285
2017-10-11T07:10:56,42.805,6.029,4330,1995,199.440,60.987,13.285
2017-10-11T07:13:56,42.805,6.029,4330,1995,199.485,61.001,13.285
2017-10-11T07:16:56,42.805,6.029,4330,1995,199.408,60.978,13.285
2017-10-11T07:19:56,42.805,6.029,4330,1995,199.539,61.018,13.285
2017-10-11T07:22:56,42.805,6.029,4330,1995,199.572,61.028,13.285
2017-10-11T07:25:56,42.805,6.029,4330,1995,199.577,61.029,13.285
2017-10-11T07:28:56,42.805,6.029,4330,1995,199.564,61.025,13.285
2017-10-11T07:31:56,42.805,6.029,4330,1995,199.387,60.971,13.285
2017-10-11T07:34:56,42.805,6.029,4330,1995,199.310,60.947,13.285
2017-10-11T07:37:56,42.805,6.029,4330,1995,199.392,60.973,13.285
2017-10-11T07:40:56,42.805,6.029,4330,1995,199.423,60.982,13.285
2017-10-11T07:43:56,42.805,6.029,4330,1995,199.337,60.956,13.285
2017-10-11T07:46:56,42.805,6.029,4330,1995,199.378,60.969,13.285
2017-10-11T07:49:56,42.805,6.029,4330,1995,199.396,60.974,13.285
2017-10-11T07:52:56,42.805,6.029,4330,1995,199.420,60.981,13.285
2017-10-11T07:55:56,42.805,6.029,4330,1995,199.527,61.014,13.285
2017-10-11T07:58:56,42.805,6.029,4330,1995,199.293,60.942,13.285
2017-10-11T08:01:56,42.805,6.029,4330,1995,199.195,60.913,13.285
2017-10-11T08:04:56,42.805,6.029,4330,1995,199.026,60.861,13.285
2017-10-11T08:07:56,42.805,6.029,4330,1995,199.290,60.942,13.285
2017-10-11T08:10:56,42.805,6.029,4330,1995,199.263,60.934,13.285
2017-10-11T08:13:56,42.805,6.029,4330,1995,199.152,60.899,13.285
2017-10-11T08:16:56,42.805,6.029,4330,1995,199.275,60.937,13.285
2017-10-11T08:19:56,42.805,6.029,4330,1995,199.344,60.958,13.285
2017-10-11T08:22:56,42.805,6.029,4330,1995,199.396,60.974,13.285
2017-10-11T08:25:56,42.805,6.029,4330,1995,199.368,60.966,13.285
2017-10-11T08:28:56,42.805,6.029,4330,1995,199.350,60.960,13.285
2017-10-11T08:31:56,42.805,6.029,4330,1995,199.367,60.965,13.285
2017-10-11T08:34:56,42.805,6.029,4330,1995,199.422,60.982,13.285
2017-10-11T08:37:56,42.805,6.029,4330,1995,199.371,60.967,13.285
2017-10-11T08:40:56,42.805,6.029,4330,1995,199.338,60.957,13.285
2017-10-11T08:43:56,42.805,6.029,4330,1995,199.408,60.978,13.285
2017-10-11T08:46:56,42.805,6.029,4330,1995,199.416,60.980,13.285
2017-10-11T08:49:56,42.805,6.029,4330,1995,199.369,60.966,13.285
2017-10-11T08:52:56,42.805,6.029,4330,1995,199.283,60.940,13.285
2017-10-11T08:55:56,42.805,6.029,4330,1995,199.329,60.954,13.285
2017-10-11T08:58:56,42.805,6.029,4330,1995,199.331,60.954,13.285
2017-10-11T09:01:56,42.805,6.029,4330,1995,199.331,60.955,13.285
2017-10-11T09:04:56,42.805,6.029,4330,1995,199.373,60.968,13.285
2017-10-11T09:07:56,42.805,6.029,4330,1995,199.301,60.945,13.285
2017-10-11T09:10:56,42.805,6.029,4330,1995,199.163,60.903,13.286
2017-10-11T09:13:56,42.805,6.029,4330,1995,199.224,60.922,13.285
2017-10-11T09:16:56,42.805,6.029,4330,1995,199.171,60.906,13.285
2017-10-11T09:19:56,42.805,6.029,4330,1995,199.191,60.912,13.285
2017-10-11T09:22:56,42.805,6.029,4330,1995,199.156,60.901,13.285
2017-10-11T09:25:56,42.805,6.029,4330,1995,199.289,60.942,13.285
2017-10-11T09:28:56,42.805,6.029,4330,1995,199.290,60.942,13.285
2017-10-11T09:31:56,42.805,6.029,4330,1995,199.168,60.905,13.285
2017-10-11T09:34:56,42.805,6.029,4330,1995,198.827,60.801,13.286
2017-10-11T09:37:56,42.805,6.029,4330,1995,198.692,60.760,13.286
2017-10-11T09:40:56,42.805,6.029,4330,1995,198.890,60.820,13.286
2017-10-11T09:43:56,42.805,6.029,4330,1995,198.813,60.797,13.286
2017-10-11T09:46:56,42.805,6.029,4330,1995,198.784,60.788,13.286
2017-10-11T09:49:56,42.805,6.029,4330,1995,198.812,60.797,13.286
2017-10-11T09:52:56,42.805,6.029,4330,1995,198.882,60.818,13.286
2017-10-11T09:55:56,42.805,6.029,4330,1995,199.007,60.856,13.286
2017-10-11T09:58:56,42.805,6.029,4330,1995,198.903,60.824,13.286
2017-10-11T10:01:56,42.805,6.029,4330,1995,198.689,60.759,13.286
2017-10-11T10:04:56,42.805,6.029,4330,1995,198.659,60.750,13.286
2017-10-11T10:07:56,42.805,6.029,4330,1995,198.742,60.775,13.286
2017-10-11T10:10:56,42.805,6.029,4330,1995,198.829,60.801,13.285
2017-10-11T10:13:56,42.805,6.029,4330,1995,198.961,60.842,13.286
2017-10-11T10:16:56,42.805,6.029,4330,1995,199.031,60.863,13.286
2017-10-11T10:19:56,42.805,6.029,4330,1995,198.869,60.814,13.286
2017-10-11T10:22:56,42.805,6.029,4330,1995,198.898,60.822,13.286
2017-10-11T10:25:56,42.805,6.029,4330,1995,198.924,60.830,13.286
2017-10-11T10:28:56,42.805,6.029,4330,1995,198.902,60.824,13.286
2017-10-11T10:31:56,42.805,6.029,4330,1995,198.784,60.788,13.286
2017-10-11T10:34:56,42.805,6.029,4330,1995,198.780,60.787,13.286
2017-10-11T10:37:56,42.805,6.029,4330,1995,198.704,60.764,13.286
2017-10-11T10:40:56,42.805,6.029,4330,1995,198.577,60.725,13.286
2017-10-11T10:43:56,42.805,6.029,4330,1995,198.434,60.682,13.287
2017-10-11T10:46:56,42.805,6.029,4330,1995,198.300,60.641,13.286
2017-10-11T10:49:56,42.805,6.029,4330,1995,198.214,60.614,13.286
2017-10-11T10:52:56,42.805,6.029,4330,1995,198.486,60.697,13.286
2017-10-11T10:55:56,42.805,6.029,4330,1995,198.644,60.746,13.286
2017-10-11T10:58:56,42.805,6.029,4330,1995,198.461,60.690,13.287
2017-10-11T11:01:56,42.805,6.029,4330,1995,198.370,60.662,13.287
2017-10-11T11:04:56,42.805,6.029,4330,1995,198.390,60.668,13.286
2017-10-11T11:07:56,42.805,6.029,4330,1995,198.281,60.635,13.287
2017-10-11T11:10:56,42.805,6.029,4330,1995,198.141,60.593,13.287
2017-10-11T11:13:56,42.805,6.029,4330,1995,197.815,60.493,13.287
2017-10-11T11:16:56,42.805,6.029,4330,1995,197.567,60.417,13.287
2017-10-11T11:19:56,42.805,6.029,4330,1995,197.565,60.417,13.287
2017-10-11T11:22:56,42.805,6.029,4330,1995,197.634,60.438,13.287
2017-10-11T11:25:56,42.805,6.029,4330,1995,197.877,60.512,13.287
2017-10-11T11:28:56,42.805,6.029,4330,1995,197.859,60.508,13.288
2017-10-11T11:31:56,42.805,6.029,4330,1995,197.681,60.454,13.288
2017-10-11T11:34:56,42.805,6.029,4330,1995,197.384,60.362,13.288
2017-10-11T11:37:56,42.805,6.029,4330,1995,197.520,60.404,13.288
2017-10-11T11:40:56,42.805,6.029,4330,1995,197.608,60.431,13.288
2017-10-11T11:43:56,42.805,6.029,4330,1995,197.373,60.361,13.289
2017-10-11T11:46:56,42.805,6.029,4330,1995,197.185,60.305,13.290
2017-10-11T11:49:56,42.805,6.029,4330,1995,196.954,60.234,13.290
2017-10-11T11:52:56,42.805,6.029,4330,1995,196.848,60.202,13.290
2017-10-11T11:55:56,42.805,6.029,4330,1995,196.631,60.139,13.293
2017-10-11T11:58:56,42.805,6.029,4330,1995,196.287,60.034,13.293
2017-10-11T12:01:56,42.805,6.029,4330,1995,195.884,59.906,13.290
2017-10-11T12:04:56,42.805,6.029,4330,1995,196.268,60.022,13.289
2017-10-11T12:07:56,42.805,6.029,4330,1995,196.499,60.093,13.289
2017-10-11T12:10:56,42.805,6.029,4330,1995,196.305,60.036,13.290
2017-10-11T12:13:56,42.805,6.029,4330,1995,196.166,59.994,13.291
2017-10-11T12:16:56,42.805,6.029,4330,1995,196.070,59.963,13.290
2017-10-11T12:19:56,42.805,6.029,4330,1995,196.080,59.966,13.290
2017-10-11T12:22:56,42.805,6.029,4330,1995,196.229,60.012,13.290
2017-10-11T12:25:56,42.805,6.029,4330,1995,196.041,59.954,13.289
2017-10-11T12:28:56,42.805,6.029,4330,1995,195.746,59.867,13.292
2017-10-11T12:31:56,42.805,6.029,4330,1995,195.441,59.772,13.291
2017-10-11T12:34:56,42.805,6.029,4330,1995,195.460,59.777,13.290
2017-10-11T12:37:56,42.805,6.029,4330,1995,195.476,59.784,13.291
2017-10-11T12:40:56,42.805,6.029,4330,1995,195.333,59.739,13.290
2017-10-11T12:43:56,42.805,6.029,4330,1995,195.282,59.723,13.290
2017-10-11T12:46:56,42.805,6.029,4330,1995,195.418,59.764,13.290
2017-10-11T12:49:56,42.805,6.029,4330,1995,195.812,59.883,13.289
2017-10-11T12:52:56,42.805,6.029,4330,1995,196.242,60.016,13.289
2017-10-11T12:55:56,42.805,6.029,4330,1995,196.374,60.055,13.288
2017-10-11T12:58:56,42.805,6.029,4330,1995,196.484,60.088,13.289
2017-10-11T13:01:56,42.805,6.029,4330,1995,196.283,60.026,13.288
2017-10-11T13:04:56,42.805,6.029,4330,1995,196.751,60.169,13.288
2017-10-11T13:07:56,42.805,6.029,4330,1995,196.753,60.171,13.289
2017-10-11T13:10:56,42.805,6.029,4330,1995,196.786,60.182,13.290
2017-10-11T13:13:56,42.805,6.029,4330,1995,196.697,60.158,13.292
2017-10-11T13:16:56,42.805,6.029,4330,1995,196.543,60.112,13.293
2017-10-11T13:19:56,42.805,6.029,4330,1995,196.472,60.086,13.290
2017-10-11T13:22:56,42.805,6.029,4330,1995,196.736,60.165,13.288
2017-10-11T13:25:56,42.805,6.029,4330,1995,197.200,60.308,13.289
2017-10-11T13:28:56,42.805,6.029,4330,1995,197.198,60.308,13.289
2017-10-11T13:31:55,42.805,6.029,4330,1995,197.003,60.248,13.289
2017-10-11T13:34:55,42.805,6.029,4330,1995,196.862,60.205,13.289
2017-10-11T13:37:55,42.805,6.029,4330,1995,196.806,60.187,13.289
2017-10-11T13:40:55,42.805,6.029,4330,1995,196.984,60.242,13.289
2017-10-11T13:43:55,42.805,6.029,4330,1995,196.718,60.160,13.289
2017-10-11T13:46:55,42.805,6.029,4330,1995,196.624,60.133,13.290
2017-10-11T13:49:55,42.805,6.029,4330,1995,196.314,60.041,13.292
2017-10-11T13:52:55,42.805,6.029,4330,1995,196.118,59.979,13.291
2017-10-11T13:55:55,42.805,6.029,4330,1995,195.962,59.934,13.293
2017-10-11T13:58:55,42.805,6.029,4330,1995,196.113,59.979,13.292
2017-10-11T14:01:55,42.805,6.029,4330,1995,196.416,60.070,13.290
2017-10-11T14:04:55,42.805,6.029,4330,1995,196.240,60.016,13.291
2017-10-11T14:07:55,42.805,6.029,4330,1995,196.090,59.972,13.291
2017-10-11T14:10:55,42.805,6.029,4330,1995,196.014,59.948,13.292
2017-10-11T14:13:55,42.805,6.029,4330,1995,195.913,59.914,13.289
2017-10-11T14:16:55,42.805,6.029,4330,1995,195.985,59.936,13.289
2017-10-11T14:19:55,42.805,6.029,4330,1995,196.038,59.954,13.290
2017-10-11T14:22:55,42.805,6.029,4330,1995,196.287,60.029,13.290
2017-10-11T14:25:55,42.805,6.029,4330,1995,196.430,60.071,13.288
2017-10-11T14:28:55,42.805,6.029,4330,1995,196.716,60.160,13.289
2017-10-11T14:31:55,42.805,6.029,4330,1995,196.693,60.153,13.289
2017-10-11T14:34:55,42.805,6.029,4330,1995,196.694,60.155,13.290
2017-10-11T14:37:55,42.805,6.029,4330,1995,196.578,60.119,13.290
2017-10-11T14:40:55,42.805,6.029,4330,1995,196.705,60.158,13.290
2017-10-11T14:43:55,42.805,6.029,4330,1995,196.602,60.125,13.289
2017-10-11T14:46:55,42.805,6.029,4330,1995,196.680,60.149,13.289
2017-10-11T14:49:55,42.805,6.029,4330,1995,196.830,60.196,13.290
2017-10-11T14:52:55,42.805,6.029,4330,1995,196.761,60.174,13.289
2017-10-11T14:55:55,42.805,6.029,4330,1995,196.589,60.120,13.289
2017-10-11T14:58:55,42.805,6.029,4330,1995,196.374,60.054,13.288
2017-10-11T15:01:55,42.805,6.029,4330,1995,196.573,60.115,13.288
2017-10-11T15:04:55,42.805,6.029,4330,1995,196.671,60.145,13.288
2017-10-11T15:07:55,42.805,6.029,4330,1995,196.688,60.150,13.288
2017-10-11T15:10:55,42.805,6.029,4330,1995,196.859,60.203,13.288
2017-10-11T15:13:55,42.805,6.029,4330,1995,197.423,60.374,13.288
2017-10-11T15:16:55,42.805,6.029,4330,1995,197.194,60.306,13.289
2017-10-11T15:19:55,42.805,6.029,4330,1995,196.942,60.228,13.288
2017-10-11T15:22:55,42.805,6.029,4330,1995,197.020,60.250,13.287
2017-10-11T15:25:55,42.805,6.029,4330,1995,197.034,60.255,13.288
2017-10-11T15:28:55,42.805,6.029,4330,1995,197.057,60.264,13.288
2017-10-11T15:31:55,42.805,6.029,4330,1995,196.870,60.206,13.288
2017-10-11T15:34:55,42.805,6.029,4330,1995,196.946,60.230,13.289
2017-10-11T15:37:55,42.805,6.029,4330,1995,196.767,60.174,13.288
2017-10-11T15:40:55,42.805,6.029,4330,1995,196.975,60.238,13.288
2017-10-11T15:43:55,42.805,6.029,4330,1995,197.100,60.276,13.288
2017-10-11T15:46:55,42.805,6.029,4330,1995,197.006,60.247,13.288
2017-10-11T15:49:55,42.805,6.029,4330,1995,196.976,60.238,13.288
2017-10-11T15:52:55,42.805,6.029,4330,1995,197.348,60.351,13.287
2017-10-11T15:55:55,42.805,6.029,4330,1995,197.263,60.326,13.288
2017-10-11T15:58:55,42.805,6.029,4330,1995,197.178,60.300,13.288
2017-10-11T16:01:55,42.805,6.029,4330,1995,197.129,60.284,13.288
2017-10-11T16:04:55,42.805,6.029,4330,1995,197.102,60.277,13.288
2017-10-11T16:07:55,42.805,6.029,4330,1995,197.044,60.258,13.287
2017-10-11T16:10:55,42.805,6.029,4330,1995,197.144,60.289,13.288
2017-10-11T16:13:55,42.805,6.029,4330,1995,197.379,60.361,13.288
2017-10-11T16:16:55,42.805,6.029,4330,1995,197.481,60.392,13.288
2017-10-11T16:19:55,42.805,6.029,4330,1995,197.364,60.356,13.287
2017-10-11T16:22:55,42.805,6.029,4330,1995,197.295,60.334,13.287
2017-10-11T16:25:55,42.805,6.029,4330,1995,197.552,60.414,13.288
2017-10-11T16:28:55,42.805,6.029,4330,1995,197.521,60.403,13.287
2017-10-11T16:31:55,42.805,6.029,4330,1995,197.502,60.398,13.287
2017-10-11T16:34:55,42.805,6.029,4330,1995,197.356,60.353,13.287
2017-10-11T16:37:55,42.805,6.029,4330,1995,197.305,60.338,13.288
2017-10-11T16:40:55,42.805,6.029,4330,1995,197.366,60.356,13.287
2017-10-11T16:43:55,42.805,6.029,4330,1995,197.572,60.419,13.287
2017-10-11T16:46:55,42.805,6.029,4330,1995,197.513,60.402,13.288
2017-10-11T16:49:55,42.805,6.029,4330,1995,197.209,60.309,13.288
2017-10-11T16:52:55,42.805,6.029,4330,1995,197.330,60.345,13.287
2017-10-11T16:55:55,42.805,6.029,4330,1995,197.479,60.390,13.287
2017-10-11T16:58:55,42.805,6.029,4330,1995,197.617,60.433,13.287
2017-10-11T17:01:55,42.805,6.029,4330,1995,197.593,60.426,13.287
2017-10-11T17:04:55,42.805,6.029,4330,1995,197.340,60.349,13.288
2017-10-11T17:07:55,42.805,6.029,4330,1995,197.299,60.335,13.287
2017-10-11T17:10:55,42.805,6.029,4330,1995,197.516,60.402,13.287
2017-10-11T17:13:55,42.805,6.029,4330,1995,197.534,60.408,13.288
2017-10-11T17:16:55,42.805,6.029,4330,1995,197.459,60.385,13.287
2017-10-11T17:19:55,42.805,6.029,4330,1995,197.408,60.370,13.288
2017-10-11T17:22:55,42.805,6.029,4330,1995,197.399,60.367,13.287
2017-10-11T17:25:55,42.805,6.029,4330,1995,197.180,60.300,13.288
2017-10-11T17:28:55,42.805,6.029,4330,1995,197.157,60.294,13.288
2017-10-11T17:31:55,42.805,6.029,4330,1995,197.216,60.310,13.287
2017-10-11T17:34:55,42.805,6.029,4330,1995,197.134,60.286,13.288
2017-10-11T17:37:55,42.805,6.029,4330,1995,197.412,60.370,13.287
2017-10-11T17:40:55,42.805,6.029,4330,1995,197.591,60.425,13.287
2017-10-11T17:43:55,42.805,6.029,4330,1995,197.773,60.480,13.287
2017-10-11T17:46:55,42.805,6.029,4330,1995,197.729,60.467,13.287
2017-10-11T17:49:55,42.805,6.029,4330,1995,197.713,60.462,13.287
2017-10-11T17:52:55,42.805,6.029,4330,1995,197.623,60.436,13.288
2017-10-11T17:55:55,42.805,6.029,4330,1995,197.335,60.348,13.288
2017-10-11T17:58:55,42.805,6.029,4330,1995,197.344,60.349,13.287
2017-10-11T18:01:55,42.805,6.029,4330,1995,197.522,60.404,13.288
2017-10-11T18:04:55,42.805,6.029,4330,1995,197.413,60.371,13.287
2017-10-11T18:07:55,42.805,6.029,4330,1995,197.404,60.368,13.287